This is the latest recevied weather packets stored in our database for station/object N3AVN. If no packets are shown the sender has not sent any weather packets the latest 10 day(s).
| Time | Temp. | Humidity | Pressure | Rain* | Wind** | Luminosity | Snow |
|---|---|---|---|---|---|---|---|
| 1777825550 | 12.22° C | 41% | 1007.5 hPa | 0 mm | - | 730 W/m² | - |
| 1777825248 | 12.78° C | 43% | 1007.7 hPa | 0 mm | - | 705 W/m² | - |
| 1777824944 | 11.67° C | 44% | 1007.6 hPa | 0 mm | - | 543 W/m² | - |
| 1777824640 | 12.78° C | 43% | 1007.6 hPa | 0 mm | - | 700 W/m² | - |
| 1777824338 | 12.22° C | 46% | 1007.5 hPa | 0 mm | - | 732 W/m² | - |
| 1777824033 | 11.11° C | 45% | 1007.6 hPa | 0 mm | - | 528 W/m² | - |
| 1777823730 | 11.11° C | 45% | 1007.4 hPa | 0 mm | - | 201 W/m² | - |
| 1777823427 | 11.67° C | 46% | 1007.4 hPa | 0 mm | - | 219 W/m² | - |
| 1777823124 | 12.78° C | 39% | 1007.1 hPa | 0 mm | - | 321 W/m² | - |
| 1777822822 | 12.22° C | 42% | 1007.3 hPa | 0 mm | - | 694 W/m² | - |
| 1777822520 | 12.22° C | 42% | 1007.1 hPa | 0 mm | - | 670 W/m² | - |
| 1777822217 | 10.56° C | 45% | 1007.4 hPa | 0 mm | - | 355 W/m² | - |
| 1777821915 | 11.67° C | 45% | 1007.3 hPa | 0 mm | - | 374 W/m² | - |
| 1777821612 | 11.11° C | 44% | 1007.3 hPa | 0 mm | - | 240 W/m² | - |
| 1777821311 | 11.11° C | 42% | 1007.2 hPa | 0 mm | - | 279 W/m² | - |
| 1777821007 | 11.11° C | 46% | 1007.2 hPa | 0 mm | - | 231 W/m² | - |
| 1777820703 | 11.11° C | 49% | 1007.2 hPa | 0 mm | - | 197 W/m² | - |
| 1777820399 | 11.11° C | 49% | 1007.1 hPa | 0 mm | - | 182 W/m² | - |
| 1777820097 | 11.11° C | 48% | 1007.5 hPa | 0 mm | - | 201 W/m² | - |
| 1777819794 | 11.11° C | 45% | 1007.4 hPa | 0 mm | - | 438 W/m² | - |
| 1777819491 | 12.22° C | 45% | 1007.4 hPa | 0 mm | - | 210 W/m² | - |
| 1777819189 | 12.22° C | 48% | 1007.6 hPa | 0 mm | - | 700 W/m² | - |
| 1777818885 | 11.67° C | 48% | 1007.6 hPa | 0 mm | - | 669 W/m² | - |
| 1777818581 | 11.67° C | 50% | 1007.7 hPa | 0 mm | - | 544 W/m² | - |
| 1777818279 | 11.67° C | 51% | 1007.6 hPa | 0 mm | - | 708 W/m² | - |
* Rain latest hour (hover to see other rain measurements)
** Current wind speed in m/s (hover to see current wind gust speed)